Date String (YYYY-MM-DD hh:mm:ss) UTC,Instrument flags,Ambient pressure (hPa),Sample flow (lpm),Bypass flow (lpm),Sample temperature (°C),Ambient temperature (°C),ASC tube jacket temperature (°C),LED temperature (°C),Box temperature (°C),Sample RH (%),Span deviation,Mass concentration (μg/m³),Mass concentration (μg/m³),Mass concentration (μg/m³)
DateTimeUTC,F1_M11,P_M11,Q1_M11,Q2_M11,T1_M11,T2_M11,T3_M11,T4_M11,T5_M11,U1_M11,ZSPAN_M11,X2_M11,X0_M11,X1_M11
2022-07-16 11:00:00,,0830.2,4.99,0.00,31.6,28.9,00.0,39.5,32.4,34.1,0000.0,0005.35,0009.50,0004.61
2022-07-16 11:01:00,,0830.3,5.00,0.00,31.6,29.0,00.0,39.5,32.4,33.8,0000.0,0005.36,0010.17,0004.62
2022-07-16 11:02:00,,0830.3,5.01,0.00,31.6,28.5,00.0,39.5,32.4,34.5,0000.0,0005.37,0010.58,0004.65
2022-07-16 11:03:00,,0830.3,5.00,0.00,31.6,27.6,00.0,39.5,32.3,35.0,0000.0,0005.42,0010.74,0004.69
2022-07-16 11:04:00,,0830.2,5.01,0.00,31.6,27.2,00.0,39.5,32.2,35.3,0000.0,0005.41,0010.66,0004.74
2022-07-16 11:05:00,,0830.3,5.00,0.00,31.7,27.1,00.0,39.5,32.1,34.8,0000.0,0005.46,0010.43,0004.78
2022-07-16 11:06:00,,0830.3,5.00,0.00,31.7,27.2,00.0,39.5,32.1,34.4,0000.0,0005.51,0011.16,0004.80
2022-07-16 11:07:00,,0830.2,4.99,0.00,31.7,27.4,00.0,39.5,32.0,34.4,0000.0,0005.51,0011.31,0004.81
2022-07-16 11:08:00,,0830.2,5.01,0.00,31.7,27.6,00.0,39.6,32.0,34.5,0000.0,0005.50,0011.31,0004.82
2022-07-16 11:09:00,,0830.2,4.99,0.00,31.6,27.7,00.0,39.6,32.0,34.5,0000.0,0005.52,0011.66,0004.82
2022-07-16 11:10:00,,0830.3,5.00,0.00,31.6,27.9,00.0,39.6,32.0,34.2,0000.0,0005.55,0012.07,0004.83
2022-07-16 11:11:00,,0830.2,5.00,0.00,31.6,28.1,00.0,39.6,32.0,33.5,0000.0,0005.58,0012.10,0004.84
2022-07-16 11:12:00,,0830.3,5.00,0.00,31.5,28.2,00.0,39.7,32.1,34.1,0000.0,0005.67,0012.18,0004.88
2022-07-16 11:13:00,,0830.3,5.00,0.00,31.5,28.3,00.0,39.7,32.1,34.5,0000.0,0005.71,0011.84,0004.91
2022-07-16 11:14:00,,0830.3,5.01,0.00,31.4,28.4,00.0,39.7,32.1,33.9,0000.0,0005.74,0011.68,0004.93
2022-07-16 11:15:00,,0830.3,5.00,0.00,31.4,28.5,00.0,39.7,32.1,33.2,0000.0,0005.80,0011.85,0004.95
2022-07-16 11:16:00,,0830.3,5.00,0.00,31.4,28.6,00.0,39.7,32.2,33.1,0000.0,0005.85,0012.10,0004.97
2022-07-16 11:17:00,,0830.3,5.00,0.00,31.3,28.7,00.0,39.7,32.2,33.2,0000.0,0005.86,0011.88,0004.99
2022-07-16 11:18:00,,0830.3,5.00,0.00,31.3,28.7,00.0,39.7,32.2,33.2,0000.0,0005.88,0011.64,0005.00
2022-07-16 11:19:00,,0830.3,5.00,0.00,31.3,28.8,00.0,39.7,32.2,33.2,0000.0,0005.91,0011.79,0005.00
2022-07-16 11:20:00,,0830.3,5.00,0.00,31.3,28.9,00.0,39.7,32.3,33.1,0000.0,0005.90,0011.68,0005.01
2022-07-16 11:21:00,,0830.2,5.01,0.00,31.3,28.9,00.0,39.7,32.3,33.1,0000.0,0005.86,0011.09,0005.03
2022-07-16 11:22:00,,0830.2,5.00,0.00,31.2,29.0,00.0,39.7,32.3,33.1,0000.0,0005.84,0011.04,0005.05
2022-07-16 11:23:00,,0830.2,5.00,0.00,31.2,29.0,00.0,39.7,32.3,33.3,0000.0,0005.78,0010.48,0005.04
2022-07-16 11:24:00,,0830.2,5.00,0.00,31.2,29.1,00.0,39.7,32.4,33.3,0000.0,0005.74,0010.34,0005.04
2022-07-16 11:25:00,,0830.2,5.00,0.00,31.2,29.1,00.0,39.7,32.4,33.3,0000.0,0005.75,0010.40,0005.04
2022-07-16 11:26:00,,0830.2,5.02,0.00,31.2,28.9,00.0,39.7,32.4,33.4,0000.0,0005.72,0010.29,0005.03
2022-07-16 11:27:00,,0830.1,4.99,0.00,31.2,28.2,00.0,39.6,32.3,33.4,0000.0,0005.72,0010.24,0005.03
2022-07-16 11:28:00,,0830.1,5.00,0.00,31.1,27.7,00.0,39.6,32.2,33.5,0000.0,0005.69,0009.62,0005.03
2022-07-16 11:29:00,,0830.1,5.00,0.00,31.0,27.6,00.0,39.5,32.0,33.7,0000.0,0005.66,0009.60,0005.02
2022-07-16 11:30:00,,0830.1,5.00,0.00,30.9,27.7,00.0,39.5,32.0,33.8,0000.0,0005.65,0009.50,0005.02
2022-07-16 11:31:00,,0830.1,5.00,0.00,30.8,27.8,00.0,39.5,32.0,34.1,0000.0,0005.67,0009.50,0005.01
2022-07-16 11:32:00,,0830.1,4.99,0.00,30.8,28.0,00.0,39.5,32.0,34.1,0000.0,0005.65,0009.49,0004.99
2022-07-16 11:33:00,,0830.2,5.01,0.00,30.7,28.1,00.0,39.4,32.0,34.1,0000.0,0005.66,0009.51,0004.98
2022-07-16 11:34:00,,0830.2,5.00,0.00,30.7,28.2,00.0,39.4,32.0,34.2,0000.0,0005.69,0009.60,0004.97
2022-07-16 11:35:00,,0830.2,4.99,0.00,30.7,28.4,00.0,39.4,32.0,34.1,0000.0,0005.69,0009.39,0004.97
2022-07-16 11:36:00,,0830.2,5.00,0.00,30.6,28.5,00.0,39.4,32.0,34.1,0000.0,0005.66,0009.30,0004.98
2022-07-16 11:37:00,,0830.3,5.00,0.00,30.6,28.6,00.0,39.4,32.0,34.1,0000.0,0005.63,0009.29,0005.00
2022-07-16 11:38:00,,0830.2,5.00,0.00,30.6,28.7,00.0,39.3,32.1,34.1,0000.0,0005.62,0009.14,0005.01
2022-07-16 11:39:00,,0830.2,5.00,0.00,30.6,28.7,00.0,39.3,32.1,34.2,0000.0,0005.62,0009.21,0005.02
2022-07-16 11:40:00,,0830.3,5.00,0.00,30.6,28.8,00.0,39.3,32.1,34.2,0000.0,0005.64,0009.77,0005.03
2022-07-16 11:41:00,,0830.3,5.00,0.00,30.6,28.9,00.0,39.3,32.1,34.1,0000.0,0005.66,0010.01,0005.05
2022-07-16 11:42:00,,0830.2,5.00,0.00,30.6,28.9,00.0,39.3,32.2,34.1,0000.0,0005.71,0010.21,0005.09
2022-07-16 11:43:00,,0830.1,5.01,0.00,30.6,29.0,00.0,39.3,32.2,34.1,0000.0,0005.74,0010.73,0005.11
2022-07-16 11:44:00,,0830.1,5.00,0.00,30.6,29.0,00.0,39.3,32.2,34.1,0000.0,0005.76,0010.77,0005.13
2022-07-16 11:45:00,,0830.1,5.00,0.00,30.6,28.6,00.0,39.3,32.2,34.1,0000.0,0005.74,0010.77,0005.13
2022-07-16 11:46:00,,0830.1,5.00,0.00,30.6,27.9,00.0,39.2,32.1,34.1,0000.0,0005.77,0010.85,0005.14
2022-07-16 11:47:00,,0830.1,4.99,0.00,30.6,27.6,00.0,39.2,32.0,34.4,0000.0,0005.78,0010.94,0005.15
2022-07-16 11:48:00,,0830.1,5.01,0.00,30.4,27.6,00.0,39.2,31.8,34.8,0000.0,0005.80,0011.01,0005.14
2022-07-16 11:49:00,,0830.2,5.00,0.00,30.4,27.7,00.0,39.1,31.8,34.8,0000.0,0005.79,0010.96,0005.14
2022-07-16 11:50:00,,0830.2,5.00,0.00,30.3,27.8,00.0,39.1,31.8,34.9,0000.0,0005.78,0010.84,0005.14
2022-07-16 11:51:00,,0830.2,5.02,0.00,30.3,28.0,00.0,39.1,31.8,35.0,0000.0,0005.81,0010.30,0005.15
2022-07-16 11:52:00,,0830.2,5.00,0.00,30.3,28.1,00.0,39.1,31.8,35.0,0000.0,0005.81,0010.01,0005.16
2022-07-16 11:53:00,,0830.2,5.01,0.00,30.3,28.3,00.0,39.1,31.8,35.0,0000.0,0005.77,0009.81,0005.15
2022-07-16 11:54:00,,0830.2,4.99,0.00,30.4,28.4,00.0,39.1,32.0,34.7,0000.0,0005.75,0009.26,0005.14
2022-07-16 11:55:00,,0830.3,5.00,0.00,30.5,28.5,00.0,39.0,32.0,34.4,0000.0,0005.74,0009.27,0005.13
2022-07-16 11:56:00,,0830.2,5.00,0.00,30.6,28.6,00.0,39.1,32.0,34.3,0000.0,0005.77,0009.34,0005.14
2022-07-16 11:57:00,,0830.2,5.00,0.00,30.6,28.6,00.0,39.1,32.0,34.3,0000.0,0005.77,0009.30,0005.13
2022-07-16 11:58:00,,0830.3,5.00,0.00,30.6,28.7,00.0,39.1,32.0,34.2,0000.0,0005.73,0009.20,0005.12
2022-07-16 11:59:00,,0830.2,4.98,0.00,30.6,28.8,00.0,39.1,32.1,34.2,0000.0,0005.71,0009.05,0005.12
